AirNav  
 
 1021 users online  

63B Limington-Harmon Airport
Limington, Maine, USA

GOING TO LIMINGTON?


FAA INFORMATION EFFECTIVE 29 MARCH 2018

Location

FAA Identifier: 63B
Lat/Long: 43-45-46.9000N / 070-40-20.9000W
43-45.781667N / 070-40.348333W
43.7630278 / -70.6724722
(estimated)
Elevation: 292.3 ft. / 89.1 m (surveyed)
Variation: 17W (1985)
From city: 3 miles N of LIMINGTON, ME
Time zone: UTC -4 (UTC -5 during Standard Time)
Zip code: 04049

Airport Operations

Airport use: Open to the public
Activation date: 09/1975
Control tower: no
ARTCC: BOSTON CENTER
FSS: BANGOR FLIGHT SERVICE STATION
NOTAMs facility: BGR (NOTAM-D service available)
Attendance: UNATTENDED UNATTENDED UNATTENDED
Pattern altitude: 1392.3 ft. MSL
Wind indicator: lighted
Segmented circle: no
Lights: ACTVT LIRL RY 11/29 5 CLICKS - CTAF.

Airport Communications

CTAF/UNICOM: 122.7
APPROACH: 119.75
DEPARTURE: 119.75
WX ASOS at PWM (17 nm SE): PHONE 207-874-7914
WX ASOS at IZG (18 nm NW): 135.775 (207-935-2882)
  • CLNC DLVY THRU FLIGHT SERVICES 1-800-WX-BRIEF.

Nearby radio navigation aids

VOR radial/distance  VOR name  Freq  Var
ENEr010/20.4KENNEBUNK VOR/DME117.1017W

 
NDB name  Hdg/Dist  Freq  Var  ID
ROLLINS028/33.326016WESG . ... --.

Airport Services

Fuel available: 100LL
24 HR. SELF-SERVE FUEL WITH MAJOR CREDIT CARD
Parking: hangars and tiedowns
Airframe service: NONE
Powerplant service: NONE

Runway Information

Runway 11/29

Dimensions: 2973 x 50 ft. / 906 x 15 m
Surface: asphalt, in fair condition
Runway edge lights: low intensity
RY 11/29 NSTD LIRL. RY 29 HAS 2 THLD LIGHTS 320 FT FM THLD. RY 11 HAS 2 THLD LIGHTS 320 FT FM THLD, RWY LIGHTS SPACED AT 400 FT, MANY LIGHTS MISSING.
Runway edge markings: MARKED AS BASIC. NUMBERS DISPLACED 320' FM THRESHOLD
RUNWAY 11  RUNWAY 29
Latitude: 43-45.794253N43-45.769358N
Longitude: 070-40.685082W070-40.010848W
Elevation: 292.3 ft.279.1 ft.
Gradient: 0.4% UP
Traffic pattern: leftleft
Markings: basic, in fair conditionbasic, in fair condition
Touchdown point: yes, no lightsyes, no lights
Obstructions: 70 ft. trees, 330 ft. from runway, 140 ft. left of centerline, 1:1 slope to clear
+2'-20' BRUSH AND TREES 25'-200' FM THRESHOLD, 0'B; +3' BERM 0'-200' FM THRESHOLD, 50'R
47 ft. trees, 405 ft. from runway, 50 ft. right of centerline, 4:1 slope to clear
+15 FT ROAD 50-200 FT FM THLD 0-125 FT RIGHT; +25 FT POLE 50 FT FM THLD 100 FT RIGHT; +35 FT D L 0-200 FT FM THLD, 125 FT RIGHT; FUEL TANK 0 FT FM THLD, 125 FT RIGHT.

Airport Ownership and Management from official FAA records

Ownership: Privately-owned
Owner: LIMINGTON AIRPORT AUTHORITY, LLC
P.O. BOX 483
LIMINGTON, ME 04049
Phone 207-637-2121
Manager: MAHMOUD KANJ
P.O. BOX 483
LIMINGTON, ME 04049
Phone 207-637-2121
EMERGENCY PHONE: 207-756-5782.

Airport Operational Statistics

Aircraft based on the field: 70
Single engine airplanes: 65
Multi engine airplanes: 2
Helicopters: 1
Ultralights: 2
    
Aircraft operations: avg 34/day *
80% local general aviation
20% transient general aviation
<1% military
* for 12-month period ending 13 August 2016

Additional Remarks

WILDLIFE ON OR IN VICINITY OF AIRPORT
TREE REMOVAL AND GRADING UNDERWAY ON NORTH SIDE OF RUNWAY. WILL CONTINUE ON SOUTH SIDE AND WEST END WHEN NORTH SIDE COMPLETED.

Instrument Procedures

There are no published instrument procedures at 63B.

Some nearby airports with instrument procedures:

KPWM - Portland International Jetport (17 nm SE)
KIZG - Eastern Slopes Regional Airport (18 nm NW)
B19 - Biddeford Municipal Airport (20 nm SE)
KSFM - Sanford Seacoast Regional Airport (22 nm S)
KLEW - Auburn/Lewiston Municipal Airport (24 nm NE)
 
Loc | Ops | Rwys | IFR | FBO | Links
Com | Nav | Svcs | Stats | Notes

Auburn-Lewiston Municipal Airport
 
Area around 63B (Limington-Harmon Airport)
 
Road maps at: MapQuest Bing Google
 
Aerial photo
WARNING: Photo may not be current or correct
Aerial photo of 63B (Limington-Harmon Airport)
Photo by Pete Chaisson- Portland Flight Services
Photo taken 25-Sep-2014
looking southwest.

Do you have a better or more recent aerial photo of Limington-Harmon Airport that you would like to share? If so, please send us your photo.

 
Sectional chart

 
Airport distance calculator
Flying to Limington-Harmon Airport? Find the distance to fly.

From to 63B

Sunrise and sunset
Times for 22-Apr-2018
 Local
(UTC-4)
 Zulu
(UTC)
Morning civil twilight05:1909:19
Sunrise05:4909:49
Sunset19:3323:33
Evening civil twilight20:0400:04

Current date and time
Zulu (UTC)  22-Apr-2018 22:08:16
Local (UTC-4)  22-Apr-2018 18:08:16
 
METAR
KPWM 
18nm SE 
222151Z 33012G23KT 10SM CLR 14/M12 A3028 RMK AO2 SLP254 T01441117
KIZG 
18nm NW 
222154Z AUTO 36011KT 10SM CLR 13/M11 A3030 RMK AO2 SLP265 T01331111
KSFM 
23nm S 
222056Z AUTO 36009KT 10SM CLR 15/M11 A3027 RMK AO2 SLP257 T01501106 56009
KLEW 
24nm NE 
222156Z AUTO 32012KT 10SM CLR 13/M11 A3029 RMK AO2 SLP274 T01331111
KCWN 
26nm NW 
222058Z AUTO 04011G17KT 10SM CLR 15/M03 A3012 RMK AO2 SLP080 T01521027 57009 $
KDAW 
31nm S 
222151Z AUTO 33012KT 10SM CLR 14/M08 A3028 RMK AO2 SLP253 T01441083
KLCI 
34nm W 
222156Z AUTO 30008KT 10SM CLR 13/M12 A3030 RMK AO2 SLP281 T01331117
TAF
KPWM 
18nm SE 
221720Z 2218/2318 31015G20KT P6SM SKC FM222200 29004KT P6SM SKC
NOTAMs
Click for the latest NOTAMs
NOTAMs are issued by the DoD/FAA and will open in a separate window not controlled by AirNav.

 

 
 

FBO, Fuel Providers, and Aircraft Ground Support

  
 Business Name 
 
 Contact 
 
 Services / Description 
 
Fuel Prices
 
Comments
  
 Limington-Harmon Airport
207-637-2121
[web site]
[email]
Airport management, Aviation fuel, Aircraft parking (ramp or tiedown), Hangars, Passenger terminal and lounge, Aircraft maintenance, Aircraft modifications, Aircraft painting, ...

More info about Limington-Harmon Airport
independent
100LL
SS $4.99 
 Updated 13-Apr-2018
 
   write
SS=Self service
Update Fuel Prices
 

Would you like to see your business listed on this page?

 If your business provides an interesting product or service to pilots, flight crews, aircraft, or users of the Limington-Harmon Airport, you should consider listing it here.  To start the listing process, click on the button below
 
Add a business
 

Other Pages about Limington-Harmon Airport

Update a link
 
Copyright © AirNav, LLC. All rights reserved. Privacy Policy  Contact